RYR6YK LPPT-EGBB

Flight info

Callsign RYR6YK
Flight time 2h 16m
Altitude 38000
Route IXIDA DCT PINEK DCT KORUL DCT EBOMO DCT RUSIB DCT NOZHU/N0429F350 DCT SHIRI DCT TOJAQ DCT EPACE/N0351F230 N91 FIGZI
Aircraft B738/M-SDE3FGILRWY/SB1

Departure

Time 2026-05-05 13:53
Airport Lisbon Humberto Delgado Airport (LPPT)

Arrival

Time 2026-05-05 16:10
Airport Birmingham Airport (EGBB)
Time Latitude Longitude Altitude Speed Heading
2026-05-05 12:58 38.76477 -9.13639 347 ft 0 kts 169°
2026-05-05 13:39 38.76489 -9.13642 357 ft 4 kts 168°
2026-05-05 13:39 38.76515 -9.13649 354 ft 4 kts 174°
2026-05-05 13:39 38.76541 -9.13647 353 ft 4 kts 207°
2026-05-05 13:40 38.76557 -9.13626 350 ft 3 kts 256°
2026-05-05 13:40 38.76558 -9.13622 351 ft 1 kts 258°
2026-05-05 13:46 38.76558 -9.13626 357 ft 3 kts 265°
2026-05-05 13:46 38.76583 -9.13666 349 ft 9 kts 335°
2026-05-05 13:47 38.76617 -9.13724 347 ft 10 kts 257°
2026-05-05 13:47 38.76602 -9.13808 345 ft 9 kts 258°
2026-05-05 13:47 38.76589 -9.13889 345 ft 9 kts 258°
2026-05-05 13:47 38.76576 -9.13968 345 ft 9 kts 255°
2026-05-05 13:48 38.76544 -9.14034 351 ft 9 kts 227°
2026-05-05 13:48 38.76506 -9.14092 347 ft 8 kts 237°
2026-05-05 13:48 38.76495 -9.14168 350 ft 10 kts 279°
2026-05-05 13:48 38.76522 -9.14259 337 ft 11 kts 293°
2026-05-05 13:49 38.76536 -9.14301 335 ft 2 kts 293°
2026-05-05 13:49 38.76538 -9.14307 335 ft 0 kts 293°
2026-05-05 13:51 38.76541 -9.14315 335 ft 4 kts 293°
2026-05-05 13:52 38.76560 -9.14369 330 ft 9 kts 294°
2026-05-05 13:52 38.76615 -9.14401 335 ft 10 kts 11°
2026-05-05 13:52 38.76691 -9.14364 335 ft 21 kts 22°
2026-05-05 13:52 38.77048 -9.14173 357 ft 90 kts 22°
2026-05-05 13:53 38.77820 -9.13759 364 ft 149 kts 22°
2026-05-05 13:53 38.78903 -9.13165 657 ft 178 kts 20°
2026-05-05 13:53 38.80024 -9.12496 1557 ft 176 kts 21°
2026-05-05 13:53 38.81169 -9.11742 2125 ft 196 kts 21°
2026-05-05 13:54 38.82405 -9.10907 2662 ft 203 kts 23°
2026-05-05 13:54 38.83689 -9.10120 3334 ft 202 kts 11°
2026-05-05 13:54 38.85055 -9.09891 4162 ft 201 kts
2026-05-05 13:54 38.86544 -9.09689 4433 ft 229 kts
2026-05-05 13:55 38.88222 -9.09451 4821 ft 249 kts
2026-05-05 13:55 38.89958 -9.09196 5574 ft 253 kts
2026-05-05 13:55 38.91696 -9.08933 6526 ft 252 kts
2026-05-05 13:55 38.93468 -9.08662 7097 ft 263 kts
2026-05-05 13:56 38.95285 -9.08380 7950 ft 263 kts
2026-05-05 13:56 38.97080 -9.08099 8753 ft 265 kts
2026-05-05 13:56 38.98932 -9.07807 9457 ft 271 kts
2026-05-05 13:56 39.00840 -9.07504 10253 ft 273 kts
2026-05-05 13:57 39.02751 -9.07201 10599 ft 292 kts
2026-05-05 13:57 39.04846 -9.06871 10783 ft 314 kts
2026-05-05 13:57 39.07059 -9.06519 11287 ft 324 kts
2026-05-05 13:57 39.09310 -9.06156 12008 ft 327 kts
2026-05-05 13:58 39.11579 -9.05789 12771 ft 330 kts
2026-05-05 13:58 39.13870 -9.05418 13528 ft 334 kts
2026-05-05 13:58 39.16191 -9.05043 14245 ft 338 kts
2026-05-05 13:58 39.18527 -9.04664 14936 ft 341 kts
2026-05-05 13:59 39.23307 -9.03891 16323 ft 350 kts
2026-05-05 13:59 39.25723 -9.03499 17169 ft 350 kts
2026-05-05 14:00 39.30606 -9.02707 18482 ft 358 kts
2026-05-05 14:00 39.32255 -9.02439 18851 ft 362 kts
2026-05-05 14:00 39.35618 -9.01894 19618 ft 367 kts
2026-05-05 14:00 39.37305 -9.01620 20001 ft 370 kts
2026-05-05 14:01 39.39903 -9.01198 20576 ft 374 kts
2026-05-05 14:01 39.42502 -9.00776 21126 ft 378 kts
2026-05-05 14:01 39.45126 -9.00349 21665 ft 383 kts
2026-05-05 14:01 39.47778 -8.99916 22266 ft 385 kts
2026-05-05 14:02 39.50446 -8.99480 22847 ft 388 kts
2026-05-05 14:02 39.53145 -8.99039 23364 ft 393 kts
2026-05-05 14:02 39.55839 -8.98600 23837 ft 397 kts
2026-05-05 14:02 39.58633 -8.98144 24295 ft 401 kts
2026-05-05 14:03 39.61408 -8.97689 24744 ft 404 kts
2026-05-05 14:03 39.64170 -8.97236 25158 ft 407 kts
2026-05-05 14:03 39.66991 -8.96774 25583 ft 410 kts
2026-05-05 14:03 39.69837 -8.96307 26043 ft 413 kts
2026-05-05 14:04 39.72696 -8.95836 26489 ft 415 kts
2026-05-05 14:04 39.75573 -8.95363 26885 ft 418 kts
2026-05-05 14:04 39.78477 -8.94886 27257 ft 422 kts
2026-05-05 14:04 39.81400 -8.94405 27635 ft 425 kts
2026-05-05 14:05 39.84343 -8.93920 28020 ft 428 kts
2026-05-05 14:05 39.87309 -8.93430 28401 ft 431 kts
2026-05-05 14:05 39.90292 -8.92938 28768 ft 434 kts
2026-05-05 14:05 39.93299 -8.92441 29149 ft 436 kts
2026-05-05 14:06 39.96319 -8.91941 29562 ft 438 kts
2026-05-05 14:06 39.99354 -8.91438 29900 ft 441 kts
2026-05-05 14:06 40.02411 -8.90933 30202 ft 445 kts
2026-05-05 14:06 40.05491 -8.90422 30473 ft 447 kts
2026-05-05 14:07 40.08580 -8.89909 30757 ft 449 kts
2026-05-05 14:07 40.11681 -8.89393 31094 ft 449 kts
2026-05-05 14:07 40.14771 -8.88877 31616 ft 444 kts
2026-05-05 14:07 40.17801 -8.88366 32341 ft 436 kts
2026-05-05 14:08 40.20806 -8.87862 32706 ft 436 kts
2026-05-05 14:08 40.23828 -8.87361 32885 ft 440 kts
2026-05-05 14:08 40.26877 -8.86856 33158 ft 442 kts
2026-05-05 14:08 40.29919 -8.86350 33568 ft 439 kts
2026-05-05 14:09 40.32938 -8.85844 34017 ft 437 kts
2026-05-05 14:09 40.35953 -8.85339 34320 ft 437 kts
2026-05-05 14:09 40.38972 -8.84834 34547 ft 438 kts
2026-05-05 14:09 40.41993 -8.84328 34797 ft 438 kts
2026-05-05 14:10 40.45018 -8.83821 35087 ft 437 kts
2026-05-05 14:10 40.48031 -8.83315 35362 ft 437 kts
2026-05-05 14:10 40.51055 -8.82807 35606 ft 437 kts
2026-05-05 14:10 40.54069 -8.82300 35852 ft 438 kts
2026-05-05 14:11 40.57089 -8.81792 36121 ft 437 kts
2026-05-05 14:11 40.60103 -8.81283 36416 ft 436 kts
2026-05-05 14:11 40.63112 -8.80775 36711 ft 435 kts
2026-05-05 14:11 40.66114 -8.80268 36931 ft 435 kts
2026-05-05 14:12 40.69125 -8.79760 37132 ft 436 kts
2026-05-05 14:12 40.72135 -8.79252 37365 ft 436 kts
2026-05-05 14:12 40.75143 -8.78742 37605 ft 436 kts
2026-05-05 14:12 40.78107 -8.78240 37825 ft 436 kts
2026-05-05 14:13 40.81116 -8.77730 38060 ft 436 kts
2026-05-05 14:13 40.84132 -8.77219 38093 ft 439 kts
2026-05-05 14:13 40.90208 -8.76187 38101 ft 440 kts
2026-05-05 14:14 40.96245 -8.75155 38093 ft 434 kts
2026-05-05 14:14 41.02218 -8.74134 38121 ft 432 kts
2026-05-05 14:15 41.08167 -8.73119 38098 ft 430 kts
2026-05-05 14:15 41.14099 -8.72104 38104 ft 430 kts
2026-05-05 14:16 41.20031 -8.71087 38110 ft 430 kts
2026-05-05 14:16 41.25970 -8.70068 38115 ft 431 kts
2026-05-05 14:17 41.31934 -8.69041 38112 ft 432 kts
2026-05-05 14:17 41.37911 -8.68010 38103 ft 434 kts
2026-05-05 14:18 41.43905 -8.66974 38089 ft 435 kts
2026-05-05 14:18 41.49910 -8.65934 38083 ft 436 kts
2026-05-05 14:19 41.55928 -8.64890 38071 ft 436 kts
2026-05-05 14:19 41.61944 -8.63843 38066 ft 436 kts
2026-05-05 14:20 41.67948 -8.62798 38081 ft 435 kts
2026-05-05 14:20 41.73945 -8.61751 38076 ft 434 kts
2026-05-05 14:21 41.79930 -8.60705 38066 ft 433 kts
2026-05-05 14:21 41.85875 -8.59408 38071 ft 436 kts 11°
2026-05-05 14:22 41.91580 -8.56511 38067 ft 439 kts 17°
2026-05-05 14:22 41.97231 -8.53394 38072 ft 438 kts 17°
2026-05-05 14:23 42.02839 -8.50329 38060 ft 438 kts 17°
2026-05-05 14:23 42.08486 -8.47277 38062 ft 437 kts 17°
2026-05-05 14:24 42.14137 -8.44235 38069 ft 438 kts 17°
2026-05-05 14:24 42.19791 -8.41188 38061 ft 438 kts 17°
2026-05-05 14:25 42.25448 -8.38133 38065 ft 438 kts 17°
2026-05-05 14:25 42.31109 -8.35069 38067 ft 438 kts 17°
2026-05-05 14:26 42.36771 -8.31998 38052 ft 439 kts 17°
2026-05-05 14:26 42.42437 -8.28918 38051 ft 439 kts 17°
2026-05-05 14:27 42.48106 -8.25832 38066 ft 439 kts 17°
2026-05-05 14:27 42.53774 -8.22740 38057 ft 440 kts 17°
2026-05-05 14:28 42.59459 -8.19632 38049 ft 440 kts 18°
2026-05-05 14:28 42.65134 -8.16523 38050 ft 440 kts 18°
2026-05-05 14:29 42.70810 -8.13408 38066 ft 440 kts 18°
2026-05-05 14:29 42.76487 -8.10287 38067 ft 440 kts 18°
2026-05-05 14:30 42.82155 -8.07164 38063 ft 440 kts 18°
2026-05-05 14:30 42.87825 -8.04034 38048 ft 440 kts 18°
2026-05-05 14:31 42.93454 -8.00920 38058 ft 439 kts 18°
2026-05-05 14:31 42.99111 -7.97784 38057 ft 438 kts 18°
2026-05-05 14:32 43.04762 -7.94645 38063 ft 438 kts 18°
2026-05-05 14:32 43.10406 -7.91505 38058 ft 438 kts 18°
2026-05-05 14:33 43.16046 -7.88360 38063 ft 438 kts 18°
2026-05-05 14:33 43.21681 -7.85212 38049 ft 437 kts 18°
2026-05-05 14:34 43.27312 -7.82060 38049 ft 437 kts 18°
2026-05-05 14:34 43.32934 -7.78906 38049 ft 436 kts 18°
2026-05-05 14:35 43.38546 -7.75751 38061 ft 436 kts 19°
2026-05-05 14:35 43.44167 -7.72586 38050 ft 436 kts 19°
2026-05-05 14:36 43.49788 -7.69414 38047 ft 437 kts 19°
2026-05-05 14:36 43.55412 -7.66234 38050 ft 437 kts 19°
2026-05-05 14:37 43.61003 -7.63066 38059 ft 437 kts 19°
2026-05-05 14:37 43.66631 -7.59871 38058 ft 438 kts 19°
2026-05-05 14:38 43.72271 -7.56662 38044 ft 439 kts 19°
2026-05-05 14:38 43.77917 -7.53443 38042 ft 439 kts 19°
2026-05-05 14:39 43.83530 -7.50237 38036 ft 439 kts 19°
2026-05-05 14:39 43.89163 -7.47012 38041 ft 439 kts 19°
2026-05-05 14:40 43.94817 -7.43769 38045 ft 440 kts 19°
2026-05-05 14:40 44.00469 -7.40520 38048 ft 440 kts 20°
2026-05-05 14:41 44.06121 -7.37265 38040 ft 440 kts 20°
2026-05-05 14:41 44.11775 -7.34001 38038 ft 440 kts 20°
2026-05-05 14:42 44.17419 -7.30737 38038 ft 439 kts 20°
2026-05-05 14:42 44.23022 -7.27490 38043 ft 439 kts 20°
2026-05-05 14:43 44.28663 -7.24213 38033 ft 439 kts 20°
2026-05-05 14:43 44.34295 -7.20935 38045 ft 438 kts 20°
2026-05-05 14:44 44.39923 -7.17653 38046 ft 438 kts 20°
2026-05-05 14:44 44.45554 -7.14362 38037 ft 438 kts 20°
2026-05-05 14:45 44.51180 -7.11067 38033 ft 438 kts 20°
2026-05-05 14:45 44.56804 -7.07766 38033 ft 438 kts 20°
2026-05-05 14:46 44.62426 -7.04460 38034 ft 438 kts 20°
2026-05-05 14:46 44.68054 -7.01142 38031 ft 438 kts 20°
2026-05-05 14:47 44.73674 -6.97823 38028 ft 438 kts 20°
2026-05-05 14:47 44.79300 -6.94493 38036 ft 439 kts 20°
2026-05-05 14:48 44.84891 -6.91022 38019 ft 440 kts 26°
2026-05-05 14:48 44.90211 -6.86726 38042 ft 441 kts 28°
2026-05-05 14:49 44.95475 -6.82270 38023 ft 442 kts 29°
2026-05-05 14:49 44.99867 -6.78583 38026 ft 442 kts 28°
2026-05-05 14:50 45.05163 -6.74183 38023 ft 442 kts 28°
2026-05-05 14:50 45.10470 -6.69790 38022 ft 442 kts 28°
2026-05-05 14:51 45.15780 -6.65390 38021 ft 442 kts 28°
2026-05-05 14:51 45.21081 -6.60988 38025 ft 442 kts 28°
2026-05-05 14:52 45.26389 -6.56569 38025 ft 442 kts 28°
2026-05-05 14:52 45.31690 -6.52145 38017 ft 442 kts 29°
2026-05-05 14:53 45.36996 -6.47708 38017 ft 442 kts 29°
2026-05-05 14:53 45.42293 -6.43269 38021 ft 442 kts 29°
2026-05-05 14:54 45.47590 -6.38819 38015 ft 442 kts 29°
2026-05-05 14:54 45.52889 -6.34358 38014 ft 442 kts 29°
2026-05-05 14:55 45.58178 -6.29895 38012 ft 442 kts 29°
2026-05-05 14:55 45.63435 -6.25450 38024 ft 442 kts 29°
2026-05-05 14:56 45.68722 -6.20970 38005 ft 442 kts 29°
2026-05-05 14:56 45.74013 -6.16476 38007 ft 442 kts 29°
2026-05-05 14:57 45.79298 -6.11977 38004 ft 442 kts 29°
2026-05-05 14:57 45.84584 -6.07468 38009 ft 442 kts 29°
2026-05-05 14:58 45.89866 -6.02952 38003 ft 442 kts 29°
2026-05-05 14:58 45.95142 -5.98430 38002 ft 442 kts 29°
2026-05-05 14:59 46.00420 -5.93897 38009 ft 441 kts 29°
2026-05-05 14:59 46.05687 -5.89363 38007 ft 441 kts 30°
2026-05-05 15:00 46.10066 -5.85586 37996 ft 441 kts 29°
2026-05-05 15:00 46.16218 -5.80267 38000 ft 441 kts 29°
2026-05-05 15:01 46.21481 -5.75706 37997 ft 441 kts 30°
2026-05-05 15:01 46.26737 -5.71141 37997 ft 441 kts 30°
2026-05-05 15:02 46.31992 -5.66566 37993 ft 441 kts 30°
2026-05-05 15:02 46.37245 -5.61982 37992 ft 441 kts 30°
2026-05-05 15:03 46.42505 -5.57383 37984 ft 442 kts 30°
2026-05-05 15:03 46.47761 -5.52775 37988 ft 442 kts 30°
2026-05-05 15:04 46.53026 -5.48150 37979 ft 443 kts 30°
2026-05-05 15:04 46.58296 -5.43510 37980 ft 443 kts 30°
2026-05-05 15:05 46.66170 -5.36556 37982 ft 444 kts 30°
2026-05-05 15:06 46.71449 -5.31880 37979 ft 444 kts 30°
2026-05-05 15:06 46.76727 -5.27195 37978 ft 444 kts 31°
2026-05-05 15:07 46.82005 -5.22499 37978 ft 445 kts 31°
2026-05-05 15:07 46.87288 -5.17788 37971 ft 445 kts 31°
2026-05-05 15:08 46.92571 -5.13065 37971 ft 445 kts 31°
2026-05-05 15:08 46.97858 -5.08327 37971 ft 445 kts 31°
2026-05-05 15:09 47.03138 -5.03585 37967 ft 445 kts 31°
2026-05-05 15:09 47.08419 -4.98831 37965 ft 445 kts 31°
2026-05-05 15:10 47.13694 -4.94071 37975 ft 445 kts 31°
2026-05-05 15:10 47.18974 -4.89296 37964 ft 446 kts 31°
2026-05-05 15:11 47.24251 -4.84512 37969 ft 446 kts 32°
2026-05-05 15:11 47.29526 -4.79717 37959 ft 446 kts 32°
2026-05-05 15:12 47.34809 -4.74904 37965 ft 446 kts 32°
2026-05-05 15:12 47.40090 -4.70081 37961 ft 447 kts 32°
2026-05-05 15:13 47.45369 -4.65249 37962 ft 447 kts 32°
2026-05-05 15:13 47.50617 -4.60434 37963 ft 447 kts 31°
2026-05-05 15:14 47.55905 -4.55571 37960 ft 448 kts 31°
2026-05-05 15:14 47.61195 -4.50693 37959 ft 448 kts 32°
2026-05-05 15:15 47.66486 -4.45803 37956 ft 448 kts 31°
2026-05-05 15:15 47.71781 -4.40897 37956 ft 448 kts 31°
2026-05-05 15:16 47.77060 -4.35994 37959 ft 447 kts 31°
2026-05-05 15:16 47.82526 -4.31657 37964 ft 445 kts 19°
2026-05-05 15:17 47.88534 -4.29700 37977 ft 442 kts
2026-05-05 15:17 47.94623 -4.28467 37964 ft 441 kts
2026-05-05 15:18 48.00693 -4.27229 37963 ft 440 kts
2026-05-05 15:18 48.06745 -4.25941 37964 ft 439 kts
2026-05-05 15:19 48.12795 -4.24623 37968 ft 439 kts
2026-05-05 15:19 48.18843 -4.23296 37991 ft 439 kts
2026-05-05 15:20 48.24896 -4.21964 37994 ft 440 kts
2026-05-05 15:20 48.30975 -4.20625 37990 ft 443 kts
2026-05-05 15:21 48.37078 -4.19278 37978 ft 444 kts
2026-05-05 15:21 48.43148 -4.17935 37990 ft 444 kts
2026-05-05 15:22 48.49269 -4.16577 37987 ft 445 kts
2026-05-05 15:22 48.55399 -4.15214 37987 ft 445 kts
2026-05-05 15:23 48.61519 -4.13850 37996 ft 444 kts
2026-05-05 15:23 48.67627 -4.12485 37987 ft 443 kts
2026-05-05 15:24 48.73723 -4.11119 37984 ft 442 kts
2026-05-05 15:24 48.79800 -4.09755 37984 ft 441 kts
2026-05-05 15:25 48.85639 -4.08441 37980 ft 440 kts
2026-05-05 15:25 48.91441 -4.07132 37980 ft 439 kts
2026-05-05 15:26 48.97480 -4.05766 37979 ft 438 kts
2026-05-05 15:26 49.03513 -4.04398 37974 ft 438 kts
2026-05-05 15:27 49.09542 -4.03028 37980 ft 438 kts
2026-05-05 15:27 49.15559 -4.01657 37980 ft 438 kts
2026-05-05 15:28 49.21583 -4.00282 37985 ft 439 kts
2026-05-05 15:28 49.27629 -3.98898 37984 ft 440 kts
2026-05-05 15:29 49.33696 -3.97505 37987 ft 441 kts
2026-05-05 15:29 49.39774 -3.96106 37989 ft 443 kts
2026-05-05 15:30 49.45878 -3.94698 37986 ft 444 kts
2026-05-05 15:30 49.51993 -3.93284 37988 ft 445 kts
2026-05-05 15:31 49.58119 -3.91864 37987 ft 446 kts
2026-05-05 15:31 49.64255 -3.90438 37985 ft 446 kts
2026-05-05 15:32 49.70385 -3.89010 37988 ft 446 kts
2026-05-05 15:32 49.76523 -3.87576 37983 ft 445 kts
2026-05-05 15:33 49.82641 -3.86143 37984 ft 444 kts
2026-05-05 15:33 49.88708 -3.84718 37985 ft 443 kts
2026-05-05 15:34 49.94799 -3.83284 37990 ft 442 kts
2026-05-05 15:34 50.00874 -3.81851 37976 ft 441 kts
2026-05-05 15:35 50.06932 -3.80417 37978 ft 440 kts
2026-05-05 15:35 50.12978 -3.78983 37979 ft 439 kts
2026-05-05 15:36 50.19008 -3.77549 37972 ft 438 kts
2026-05-05 15:36 50.25039 -3.76111 37977 ft 438 kts
2026-05-05 15:37 50.31062 -3.74671 37972 ft 438 kts
2026-05-05 15:37 50.37091 -3.73226 37983 ft 439 kts
2026-05-05 15:38 50.43132 -3.71775 37977 ft 440 kts
2026-05-05 15:38 50.48167 -3.70562 37929 ft 442 kts
2026-05-05 15:38 50.51235 -3.69822 37457 ft 446 kts
2026-05-05 15:39 50.54283 -3.69086 37096 ft 441 kts
2026-05-05 15:39 50.57298 -3.68356 36692 ft 437 kts
2026-05-05 15:39 50.60292 -3.67631 36307 ft 433 kts
2026-05-05 15:39 50.63253 -3.66913 35928 ft 429 kts
2026-05-05 15:40 50.66199 -3.66197 35537 ft 426 kts
2026-05-05 15:40 50.69119 -3.65487 35157 ft 423 kts
2026-05-05 15:40 50.72019 -3.64781 34776 ft 421 kts
2026-05-05 15:40 50.74909 -3.64077 34397 ft 418 kts
2026-05-05 15:41 50.77779 -3.63376 34019 ft 416 kts
2026-05-05 15:41 50.80637 -3.62678 33567 ft 415 kts
2026-05-05 15:41 50.83477 -3.61983 33175 ft 411 kts
2026-05-05 15:41 50.86295 -3.61292 32790 ft 408 kts
2026-05-05 15:42 50.89090 -3.60606 32431 ft 405 kts
2026-05-05 15:42 50.91861 -3.59926 32055 ft 402 kts
2026-05-05 15:42 50.94612 -3.59249 31701 ft 399 kts
2026-05-05 15:42 50.97343 -3.58577 31340 ft 396 kts
2026-05-05 15:43 51.00058 -3.57908 30984 ft 393 kts
2026-05-05 15:43 51.02756 -3.57242 30638 ft 391 kts
2026-05-05 15:43 51.05440 -3.56579 30285 ft 389 kts
2026-05-05 15:43 51.08109 -3.55920 29923 ft 387 kts
2026-05-05 15:44 51.10767 -3.55262 29532 ft 385 kts
2026-05-05 15:44 51.13400 -3.54610 29168 ft 382 kts
2026-05-05 15:44 51.16014 -3.53961 28791 ft 379 kts
2026-05-05 15:44 51.18602 -3.53318 28451 ft 375 kts
2026-05-05 15:45 51.21174 -3.52659 28076 ft 373 kts
2026-05-05 15:45 51.23650 -3.51447 27723 ft 373 kts 21°
2026-05-05 15:45 51.25939 -3.49534 27375 ft 372 kts 32°
2026-05-05 15:45 51.28006 -3.47073 27028 ft 370 kts 37°
2026-05-05 15:46 51.30012 -3.44518 26687 ft 368 kts 38°
2026-05-05 15:46 51.32001 -3.41964 26330 ft 366 kts 38°
2026-05-05 15:46 51.33980 -3.39441 26010 ft 364 kts 37°
2026-05-05 15:46 51.35962 -3.36936 25673 ft 362 kts 37°
2026-05-05 15:47 51.37909 -3.34489 25337 ft 360 kts 37°
2026-05-05 15:47 51.39895 -3.31996 25003 ft 358 kts 37°
2026-05-05 15:47 51.41853 -3.29535 24670 ft 356 kts 37°
2026-05-05 15:47 51.43796 -3.27090 24347 ft 355 kts 37°
2026-05-05 15:48 51.45709 -3.24681 24011 ft 354 kts 37°
2026-05-05 15:48 51.47639 -3.22245 23695 ft 352 kts 37°
2026-05-05 15:48 51.49559 -3.19819 23328 ft 351 kts 37°
2026-05-05 15:48 51.51476 -3.17395 22953 ft 349 kts 37°
2026-05-05 15:49 51.53401 -3.14958 22597 ft 347 kts 37°
2026-05-05 15:49 51.55269 -3.12591 22259 ft 345 kts 37°
2026-05-05 15:49 51.57150 -3.10204 21949 ft 343 kts 37°
2026-05-05 15:49 51.59016 -3.07835 21621 ft 341 kts 37°
2026-05-05 15:50 51.60870 -3.05477 21307 ft 339 kts 37°
2026-05-05 15:50 51.62738 -3.03099 20978 ft 337 kts 37°
2026-05-05 15:50 51.64541 -3.00801 20669 ft 335 kts 37°
2026-05-05 15:50 51.66365 -2.98476 20349 ft 333 kts 37°
2026-05-05 15:51 51.68177 -2.96161 20027 ft 331 kts 37°
2026-05-05 15:51 51.69978 -2.93860 19704 ft 330 kts 37°
2026-05-05 15:51 51.71771 -2.91565 19394 ft 328 kts 37°
2026-05-05 15:51 51.73555 -2.89280 19086 ft 327 kts 37°
2026-05-05 15:52 51.75335 -2.86998 18770 ft 326 kts 37°
2026-05-05 15:52 51.77102 -2.84730 18456 ft 324 kts 37°
2026-05-05 15:52 51.78867 -2.82464 18123 ft 323 kts 37°
2026-05-05 15:52 51.80622 -2.80206 17723 ft 322 kts 37°
2026-05-05 15:53 51.82369 -2.77957 17394 ft 320 kts 37°
2026-05-05 15:53 51.84108 -2.75722 17068 ft 318 kts 37°
2026-05-05 15:53 51.85840 -2.73498 16745 ft 317 kts 37°
2026-05-05 15:53 51.87562 -2.71285 16443 ft 315 kts 37°
2026-05-05 15:54 51.89273 -2.69082 16129 ft 314 kts 36°
2026-05-05 15:54 51.90979 -2.66885 15810 ft 312 kts 37°
2026-05-05 15:54 51.92673 -2.64701 15512 ft 311 kts 37°
2026-05-05 15:54 51.94362 -2.62520 15203 ft 309 kts 37°
2026-05-05 15:55 51.96038 -2.60347 14908 ft 308 kts 38°
2026-05-05 15:55 51.97631 -2.58023 14596 ft 308 kts 41°
2026-05-05 15:55 51.99172 -2.55603 14297 ft 308 kts 43°
2026-05-05 15:55 52.00699 -2.53191 13997 ft 307 kts 42°
2026-05-05 15:56 52.02237 -2.50786 13670 ft 306 kts 42°
2026-05-05 15:56 52.03773 -2.48400 13339 ft 305 kts 42°
2026-05-05 15:56 52.05301 -2.46030 13022 ft 303 kts 41°
2026-05-05 15:56 52.06822 -2.43679 12750 ft 301 kts 41°
2026-05-05 15:57 52.08337 -2.41339 12485 ft 300 kts 42°
2026-05-05 15:57 52.09848 -2.39004 12218 ft 300 kts 41°
2026-05-05 15:57 52.11357 -2.36670 11945 ft 299 kts 42°
2026-05-05 15:57 52.12856 -2.34348 11696 ft 296 kts 41°
2026-05-05 15:58 52.14344 -2.32041 11435 ft 294 kts 41°
2026-05-05 15:58 52.15821 -2.29751 11176 ft 293 kts 41°
2026-05-05 15:58 52.17291 -2.27467 10931 ft 291 kts 41°
2026-05-05 15:58 52.18751 -2.25197 10674 ft 289 kts 42°
2026-05-05 15:59 52.20201 -2.22940 10416 ft 288 kts 42°
2026-05-05 15:59 52.21644 -2.20692 10159 ft 286 kts 42°
2026-05-05 15:59 52.23075 -2.18461 9897 ft 283 kts 42°
2026-05-05 15:59 52.24490 -2.16253 9629 ft 280 kts 41°
2026-05-05 16:00 52.25888 -2.14068 9372 ft 277 kts 42°
2026-05-05 16:00 52.27270 -2.11908 9117 ft 274 kts 41°
2026-05-05 16:00 52.28636 -2.09769 8882 ft 271 kts 41°
2026-05-05 16:00 52.29994 -2.07642 8655 ft 269 kts 42°
2026-05-05 16:01 52.31340 -2.05531 8405 ft 268 kts 42°
2026-05-05 16:01 52.32458 -2.03117 8144 ft 270 kts 66°
2026-05-05 16:01 52.32769 -2.00136 7947 ft 268 kts 93°
2026-05-05 16:01 52.32481 -1.97165 7790 ft 262 kts 103°
2026-05-05 16:02 52.32019 -1.94338 7724 ft 253 kts 104°
2026-05-05 16:02 52.31544 -1.91636 7707 ft 243 kts 105°
2026-05-05 16:02 52.31064 -1.88953 7508 ft 252 kts 105°
2026-05-05 16:02 52.30570 -1.86186 7265 ft 255 kts 105°
2026-05-05 16:03 52.30077 -1.83410 6982 ft 255 kts 105°
2026-05-05 16:03 52.29580 -1.80632 6722 ft 254 kts 105°
2026-05-05 16:03 52.29084 -1.77869 6439 ft 253 kts 105°
2026-05-05 16:03 52.28588 -1.75129 6033 ft 251 kts 105°
2026-05-05 16:04 52.28091 -1.72406 5632 ft 249 kts 105°
2026-05-05 16:04 52.27598 -1.69708 5243 ft 246 kts 105°
2026-05-05 16:04 52.27110 -1.67080 4894 ft 237 kts 103°
2026-05-05 16:04 52.27042 -1.64483 4496 ft 224 kts 71°
2026-05-05 16:05 52.27811 -1.62432 4227 ft 208 kts 39°
2026-05-05 16:05 52.28974 -1.61142 3963 ft 199 kts 31°
2026-05-05 16:05 52.30146 -1.59965 3647 ft 197 kts 30°
2026-05-05 16:05 52.31387 -1.59133 3278 ft 194 kts
2026-05-05 16:06 52.32598 -1.59898 3045 ft 188 kts 317°
2026-05-05 16:06 52.33487 -1.61417 2994 ft 185 kts 321°
2026-05-05 16:06 52.34512 -1.62673 2801 ft 184 kts 327°
2026-05-05 16:06 52.35558 -1.63844 2559 ft 180 kts 327°
2026-05-05 16:07 52.36589 -1.64991 2316 ft 179 kts 327°
2026-05-05 16:07 52.37612 -1.66133 2077 ft 178 kts 328°
2026-05-05 16:07 52.38627 -1.67264 1820 ft 175 kts 327°
2026-05-05 16:07 52.39602 -1.68354 1597 ft 164 kts 327°
2026-05-05 16:08 52.40516 -1.69375 1384 ft 155 kts 327°
2026-05-05 16:08 52.41374 -1.70331 1182 ft 147 kts 326°
2026-05-05 16:08 52.42216 -1.71270 959 ft 144 kts 326°
2026-05-05 16:08 52.43024 -1.72174 740 ft 140 kts 327°
2026-05-05 16:09 52.43831 -1.73082 535 ft 139 kts 327°
2026-05-05 16:09 52.44629 -1.73963 374 ft 136 kts 327°
2026-05-05 16:09 52.45368 -1.74782 321 ft 114 kts 326°
2026-05-05 16:09 52.45902 -1.75375 316 ft 72 kts 326°
2026-05-05 16:10 52.46120 -1.75616 308 ft 11 kts 332°
2026-05-05 16:10 52.46178 -1.75555 310 ft 11 kts 56°
2026-05-05 16:10 52.46218 -1.75430 304 ft 14 kts 93°
2026-05-05 16:10 52.46152 -1.75325 303 ft 13 kts 146°
2026-05-05 16:11 52.46078 -1.75242 303 ft 13 kts 146°
2026-05-05 16:11 52.45863 -1.75004 307 ft 12 kts 146°
2026-05-05 16:12 52.45794 -1.74928 309 ft 12 kts 146°
2026-05-05 16:12 52.45631 -1.74746 316 ft 15 kts 146°
2026-05-05 16:13 52.45540 -1.74411 322 ft 14 kts 57°
2026-05-05 16:13 52.45597 -1.74267 322 ft 17 kts 57°
2026-05-05 16:13 52.45661 -1.74104 322 ft 17 kts 57°
2026-05-05 16:14 52.45748 -1.73797 322 ft 13 kts 113°
2026-05-05 16:14 52.45635 -1.73581 322 ft 12 kts 145°
2026-05-05 16:15 52.45533 -1.73424 322 ft 7 kts 132°
2026-05-05 16:15 52.45481 -1.73362 322 ft 2 kts 146°
2026-05-05 16:16 52.45474 -1.73356 322 ft 0 kts 146°